Aswan, Egypt

9:24 AM EET on December 14, 2017 (GMT +0200)
Aswan

Weather History for HESN - February, 2014

Change the Weather History Date:

Friday, February 28, 2014

  Actual Average Record
Temperature  
Mean Temperature 70 °F -  
Max Temperature 85 °F 82 °F 100 °F (2006)
Min Temperature 55 °F 58 °F 48 °F (2003)
Cooling Degree Days 5    
Growing Degree Days 20 (Base 50)    
Moisture  
Dew Point 29 °F    
Average Humidity 22    
Maximum Humidity 38    
Minimum Humidity 5    
Precipitation  
Precipitation 0.00 in 0.00 in - ()
Sea Level Pressure  
Sea Level Pressure 29.96 in    
Wind  
Wind Speed 7 mph ()    
Max Wind Speed 12 mph    
Max Gust Speed -    
Visibility 6.0 miles    
Events      
Averages and records for this station are not official NWS values.
T = Trace of Precipitation, MM = Missing Value Source: Averaged Metar Reports

Daily Weather History Graph

Daily Weather History Graph

Search for Another Location

Airport or City:

Trip Planner

Search our weather history database for the weather conditions in past years. The results will help you decide how hot, cold, wet, or windy it might be!

Date:

Astronomy

Feb. 28, 2014 Rise Set
Actual Time 6:12 AM EET 5:51 PM EET
Civil Twilight 5:49 AM EET 6:13 PM EET
Nautical Twilight 5:23 AM EET 6:40 PM EET
Astronomical Twilight 4:56 AM EET 7:06 PM EET
Moon 5:09 AM EET (2/28) 5:04 PM EET (2/28)
Length of Visible Light 12h 24m
Length of Day
11h 38m
Waning Crescent, 1% of the Moon is Illuminated
Feb 28
Waning Crescent
Mar 1
New
Mar 8
First Quarter
Mar 16
Full
Mar 24
Last Quarter

Hourly Weather History & Observations

Time (EET) Temp. Dew Point Humidity Pressure Visibility Wind Dir Wind Speed Gust Speed Precip Events Conditions
12:00 AM 62.6 °F 23.0 °F 22% 30.01 in - North 6.9 mph - N/A   Clear
1:00 AM 62.6 °F 24.8 °F 24% 29.98 in - North 11.5 mph - N/A   Clear
2:00 AM 61 °F 30 °F 19% 29.99 in 6 mi North 9.2 mph - -  
2:00 AM 60.8 °F 30.2 °F 31% 29.98 in - North 9.2 mph - N/A   Clear
3:00 AM 60.8 °F 30.2 °F 31% 29.98 in - North 6.9 mph - N/A   Clear
4:00 AM 59.0 °F 32.0 °F 36% 29.98 in - North 6.9 mph - N/A   Clear
5:00 AM 57 °F 31 °F 25% 30.00 in 6 mi North 8.1 mph - -  
5:00 AM 57.2 °F 30.2 °F 36% 29.98 in - North 8.1 mph - N/A   Clear
6:00 AM 57.2 °F 32.0 °F 38% 30.01 in - North 8.1 mph - N/A   Clear
7:00 AM 57.2 °F 32.0 °F 38% 30.01 in - North 9.2 mph - N/A   Clear
8:00 AM 60 °F 33 °F 24% 30.02 in 6 mi North 6.9 mph - -  
8:00 AM 60.8 °F 32.0 °F 34% 30.01 in - North 6.9 mph - N/A   Clear
9:00 AM 66.2 °F 32.0 °F 28% 30.04 in - North 9.2 mph - N/A   Clear
10:00 AM 69.8 °F 33.8 °F 27% 30.04 in - North 9.2 mph - N/A   Clear
11:00 AM 74 °F 34 °F 14% 29.99 in 6 mi North 8.1 mph - -  
11:00 AM 75.2 °F 33.8 °F 22% 30.01 in - North 8.1 mph - N/A   Clear
12:00 PM 78.8 °F 33.8 °F 20% 29.98 in - North 9.2 mph - N/A   Clear
2:00 PM 84.2 °F 28.4 °F 13% 29.92 in - North 6.9 mph - N/A   Clear
3:00 PM 84.2 °F 26.6 °F 12% 29.89 in - North 6.9 mph - N/A   Clear
4:00 PM 84.2 °F 21.2 °F 10% 29.89 in - North 5.8 mph - N/A   Clear
5:00 PM 84 °F 24 °F 5% 29.87 in 6 mi NNW 5.8 mph - -  
5:00 PM 84.2 °F 41.0 °F 22% 29.89 in - NNW 5.8 mph - N/A   Clear
6:00 PM 80.6 °F 19.4 °F 10% 29.89 in - NNW 6.9 mph - N/A   Clear
7:00 PM 78.8 °F 44.6 °F 30% 29.89 in - NNW 5.8 mph - N/A   Clear
8:00 PM 75 °F 23 °F 7% 29.90 in 6 mi NNW 5.8 mph - -  
8:00 PM 75.2 °F 23.0 °F 14% 29.92 in - NNW 5.8 mph - N/A   Clear
9:00 PM 71.6 °F 15.8 °F 12% 29.92 in - North 5.8 mph - N/A   Clear
10:00 PM 69.8 °F 21.2 °F 16% 29.95 in - North 6.9 mph - N/A   Clear
11:00 PM 68 °F 26 °F 11% 29.93 in 6 mi North 8.1 mph - -  
11:00 PM 68.0 °F 26.6 °F 21% 29.92 in - North 8.1 mph - N/A   Clear